Погода в Исилькуле

Погода в Исилькуле : погода сейчас, прогноз погоды и архив. Всё, что Вы хотите узнать о погоде в Исилькуле!

Хотите узнать прогноз погоды в Исилькуле? Тогда Вам сюда: Погода в Исилькуле

Поиск расширенной информации на нашем сайте:

Полезная информация: Деньги в долг срочно дам деньги в долг.

Другие новости

Новости СМИ2

Главная страница сайта

Новости сайта

02.10.2013

Напоминаем, что на нашем новом сайте вы можете получить высокодетализированные прогнозы погоды по пунктам России, СНГ и мира (включающие важные для авиации метеовеличины, такие как направление и скорость ветра, видимость, явления погоды, количество и форма облачности, нижняя и верхняя граница облачности), а также ознакомиться с разнообразными материалами по авиационной метеорологии и подборкой полезных ссылок на эту тему.

Сайт Метеоцентр.Азия посвящён разработке технологий оптимизации авиаметеорологического обслуживания, включая проектирование и перспективное создание нескольких автоматизированных авиаметеорологических систем:
- система выпуска высокодетальных прогностических карт явлений погоды для нижнего воздушного пространства по России и ближнему зарубежью;
- система верификации прогнозов TAF (выпускаемых синоптиками официальных АМСГ РФ и ближнего зарубежья) и AUTOTAF (выпускаемых сайтом Метеоцентр.Азия) - выявление ошибок, онлайн-сопоставление с фактической погодой METAR, автоматическое внесение коррективов в прогнозы при резком отклонении фактической погоды от прогноза, подсчёт оправдываемости прогнозов по элементам и в целом;
- система обработки, анализа и отображения авиаметеорологической информации для применения провайдерами метеорологической информации.

Рекомендуем: Образец договор купли продажи сруба бани.

Погода в Исилькуле - сегодня

Время (UTC), дата Ветер
(°,м/с) 
Видим.   Явления Облачность Т
(°С)
Тd
(°С)
f(%) Тe
(°С)
Pmin
(гПа)
dP
(гПа)
Po
(мм)
O2
(г/м3)
Тmin Tmax R s Состояние
почвы
00 21.03.17 350 (С) 10 км    ясно 
-17.4 -19.8 82 -18  1037.3  0.2  765  331           
03 21.03.17 010 (С) 20000 м    ясно 
-13.7 -18.4 68 -14  1037.4  0.4  765  326  -17.4      44  неравномерный
мокрый или
старый снег
100% 
06 21.03.17 020 (С) 20000 м    ясно 
-3.6 -14.6 42 -5  1036.3  -0.5  765  314           
09 21.03.17 070 (В) 20000 м    ясно 
+1.5 -14.7 29 1035.7  -0.3  765  308           
12 21.03.17 070 (В) 20000 м    ясно 
+1.8 -14.2 29 +1  1035.4  -0.2  765  307           
15 21.03.17 070 (В) 10 км    ясно 
-6.3 -13.8 55 -6  1036.6  0.7  765  317    +2.1       
18 21.03.17 тихо ()   10 км    ясно 
-11.7 -14.9 77 -12  1037.4  0.4  765  324           
21 21.03.17 тихо ()   10 км    ясно 
-13.1 -14.8 87 -13  1037.8  0.3  766  325           
00 22.03.17 040 (СВ) 10 км    ясно 
-15.6 -17.5 85 -16  1038.3  0.3  766  329           
03 22.03.17 тихо ()   20000 м    ясно 
-12.2 -14.6 82 -12  1039.4  1.3  767  325  -17.2      44  неравномерный
мокрый или
старый снег
100% 
06 22.03.17 340 (С) 20000 м    ясно 
-1.5 -11.7 46 -1  1039.7  768  312           
09 22.03.17 030 (СВ) 20000 м    ясно 
+1.6 -7.9 49 +2  1039.3  -0.2  767  308           
12 22.03.17 090 (В) 20000 м    ясно 
+0.3 -11 42 +1  1038.6  -0.8  767  310           
15 22.03.17 150 (ЮВ) 10 км    ясно 
-6.5 -10.3 74 -6  1039.1  0.2  767  318    +2.2       
18 22.03.17 140 (ЮВ) 10 км    ясно 
-11.3 -13.6 83 -11  1039.1  -0.3  767  324           
21 22.03.17 140 (ЮВ) 10 км    ясно 
-13.5 -15.4 86 -13  1038.7  -0.5  766  326           
00 23.03.17 тихо ()   10 км    ясно 
-15.7 -17.1 89 -16  1038.7  -0.2  766  329           
03 23.03.17 110 (В) 20000 м    3/0 верхняя 
[Ci fib]
-11.6 -14.7 78 -14  1038.4  0.4  766  324  -16.4      44  неравномерный
мокрый или
старый снег
100% 
06 23.03.17 120 (ЮВ) 20000 м    1/0 верхняя 
[Ci fib]
-2.6 -11.7 50 -4  1037.3  -0.5  766  313           
09 23.03.17 150 (ЮВ) 20000 м    3/0 верхняя 
[Ci fib]
-0.2 -11.2 43 -3  1035.6  -1.5  765  309           
12 23.03.17 130 (ЮВ) 20000 м    8/0 верхняя 
[Ci sp]
-1.1 -8.9 55 -2  1034.4  -1.5  764  310           
15 23.03.17 140 (ЮВ) 10 км    6/0 средняя 
[Ac As]
-3 -9.2 62 -5  1032.9  -1.6  763  312    -0       
18 23.03.17 150 (ЮВ) 10 км    ясно 
-6.2 -10 74 -9  1031  -2.1  761  315           
21 23.03.17 140 (ЮВ) 10 км    ясно 
-7.5 -11 76 -10  1028.3  -2.7  759  316           
00 24.03.17 140 (ЮВ) 10 км    ясно 
-8.6 -11.7 78 -11  1026  -2.3  757  316           
Время (UTC), дата Ветер
(°,м/с) 
Видим.   Явления Облачность Т
(°С)
Тd
(°С)
f(%) Тe
(°С)
Pmin
(гПа)
dP
(гПа)
Po
(мм)
O2
(г/м3)
Тmin Tmax R s Состояние
почвы

Для получения пояснительной информации подведите курсор к названию столбца.

ПОГОДА в Исилькуле - архив

Всё, что Вы хотите узнать о погоде в Исилькуле - удобно и подробно!

Выберите нужную дату (начиная с 1 января 2015* года) и нажмите кнопку "Найти".
Будут отображены архивные сводки погоды по пункту Исилькуль, начиная с указанной даты.


Отображать данные в формате CSV (для использования в таблицах Excel)


Внимание! Наш архив погоды предназначен исключительно для личного некоммерческого использования в познавательных целях. Если Вам необходимы официальные справки о состоянии погоды (для производственных, юридических, коммерческих и т.п. целей), обращайтесь в органы Росгидромета.

*Примечание: данная дата относится к архиву по метеостанциям СССР (Россия, СНГ, Балтия).
Архив по метеостанциям Зарубежной Европы и Азии (кроме Китая) хранится 10 дней, по другим регионам земного шара (Китай, Африка, Америка, Австралия, Океания) - 1 день.

Исилькуль - район местоположения метеостанции


Название, широта, долгота, высота метеостанции:
Исилькуль 54.9°ш. 71.2°д. 125 м над ур. моря [Российская Федерация]

Дополнительная информация

В oтличие oт бoльшинства пoгoдных сайтoв мы публикуем пoдрoбную метеoинфoрмацию в детальнoм прoфессиoнальнoм фoрмате.

Характеристики температуры и влажнoсти вoздуха измеряются на высoте 2 м в тени вдали oт зданий и деревьев.
Скoрoсть ветра измеряется на высoте 10 м (на урoвне рoста челoвека скoрoсть ветра ниже в 1.5-2 раза). Если метеoстанция нахoдится в гoрoде или в лесу, тo скoрoсть ветра занижена на 2-4 м/с пo сравнению с oткрытым местoм. Скoрoсть ветра над акватoриями крупных рек и oзёр, а также на вершинах хoлмoв на 2-5 м/с выше, чем в oбычных услoвиях.
Атмoсфернoе давление в разных тoчках местнoсти мoжет значительнo oтличаться oт давления на метеoстанции, в зависимoсти oт услoвий рельефа (при пoдъёме на 10 м давление пoнижается примернo на 1 мм рт.ст.).